owner,sensor,date,latitude,longitude,vertical_datum,wind_speed,wind_to_direction,wind_speed_of_gust,qcFlag 
COMPS,ioos:station:USF.COMPS:C10:1,2017-04-01T00:05:00Z,27.1690,-82.9260,3.0,6.57,231.73,8.15,'1111122,1111122,1111122' 
COMPS,ioos:station:USF.COMPS:C10:1,2017-04-01T00:35:00Z,27.1690,-82.9260,3.0,5.73,238.32,7.02,'1111122,1111122,1111122' 
COMPS,ioos:station:USF.COMPS:C10:1,2017-04-01T01:05:00Z,27.1690,-82.9260,3.0,5.35,249.33,6.75,'1111122,1111122,1111122' 
COMPS,ioos:station:USF.COMPS:C10:1,2017-04-01T01:35:00Z,27.1690,-82.9260,3.0,6.58,250.54,8.19,'1111122,1111122,1111122' 
COMPS,ioos:station:USF.COMPS:C10:1,2017-04-01T02:05:00Z,27.1690,-82.9260,3.0,5.89,258.65,7.42,'1111122,1111122,1111122' 
COMPS,ioos:station:USF.COMPS:C10:1,2017-04-01T02:35:00Z,27.1690,-82.9260,3.0,5.23,260.26,6.49,'1111122,1111122,1111122' 
COMPS,ioos:station:USF.COMPS:C10:1,2017-04-01T03:05:00Z,27.1690,-82.9260,3.0,4.91,267.13,6.31,'1111122,1111122,1111122' 
COMPS,ioos:station:USF.COMPS:C10:1,2017-04-01T03:35:00Z,27.1690,-82.9260,3.0,4.87,265.41,5.98,'1111122,1111122,1111122' 
COMPS,ioos:station:USF.COMPS:C10:1,2017-04-01T04:05:00Z,27.1690,-82.9260,3.0,3.99,276.62,4.8,'1111122,1111122,1111122' 
COMPS,ioos:station:USF.COMPS:C10:1,2017-04-01T04:35:00Z,27.1690,-82.9260,3.0,2.62,282.9,3.33,'1111122,1111122,1111122' 
COMPS,ioos:station:USF.COMPS:C10:1,2017-04-01T05:05:00Z,27.1690,-82.9260,3.0,2.55,286.28,3.2,'1111122,1111122,1111122' 
COMPS,ioos:station:USF.COMPS:C10:1,2017-04-01T05:35:00Z,27.1690,-82.9260,3.0,2.21,293.98,2.78,'1111122,1111122,1111122' 
COMPS,ioos:station:USF.COMPS:C10:1,2017-04-01T06:05:00Z,27.1690,-82.9260,3.0,2.13,266.93,2.77,'1111122,1111122,1111122' 
COMPS,ioos:station:USF.COMPS:C10:1,2017-04-01T06:35:00Z,27.1690,-82.9260,3.0,2.02,280.49,2.69,'1111122,1111122,1111122' 
COMPS,ioos:station:USF.COMPS:C10:1,2017-04-01T07:05:00Z,27.1690,-82.9260,3.0,1.42,303.6,1.82,'1111122,1111122,1111122' 
COMPS,ioos:station:USF.COMPS:C10:1,2017-04-01T07:35:00Z,27.1690,-82.9260,3.0,1.55,342.48,2.18,'1111122,1111122,1111122' 
COMPS,ioos:station:USF.COMPS:C10:1,2017-04-01T08:05:00Z,27.1690,-82.9260,3.0,1.54,341.33,2.2,'1111122,1111122,1111122' 
COMPS,ioos:station:USF.COMPS:C10:1,2017-04-01T08:35:00Z,27.1690,-82.9260,3.0,1.38,20.35,2.73,'1111122,1111122,1111122' 
COMPS,ioos:station:USF.COMPS:C10:1,2017-04-01T12:05:00Z,27.1690,-82.9260,3.0,3.73,59.1,5.12,'1111122,1111122,1111122' 
COMPS,ioos:station:USF.COMPS:C10:1,2017-04-01T12:35:00Z,27.1690,-82.9260,3.0,5.16,91.8,6.46,'1111122,1111122,1111122' 
COMPS,ioos:station:USF.COMPS:C10:1,2017-04-01T13:05:00Z,27.1690,-82.9260,3.0,4.89,127.2,5.63,'1111122,1111122,1111122' 
COMPS,ioos:station:USF.COMPS:C10:1,2017-04-01T13:35:00Z,27.1690,-82.9260,3.0,4.2,126.23,5.02,'1111122,1111122,1111122' 
COMPS,ioos:station:USF.COMPS:C10:1,2017-04-01T14:05:00Z,27.1690,-82.9260,3.0,3.96,122.6,4.82,'1111122,1111122,1111122' 
COMPS,ioos:station:USF.COMPS:C10:1,2017-04-01T14:35:00Z,27.1690,-82.9260,3.0,4.05,110.38,5.04,'1111122,1111122,1111122' 
COMPS,ioos:station:USF.COMPS:C10:1,2017-04-01T16:05:00Z,27.1690,-82.9260,3.0,3.13,102.33,3.79,'1111122,1111122,1111122' 
COMPS,ioos:station:USF.COMPS:C10:1,2017-04-01T16:35:00Z,27.1690,-82.9260,3.0,2.76,118.58,3.28,'1111122,1111122,1111122' 
COMPS,ioos:station:USF.COMPS:C10:1,2017-04-01T18:05:00Z,27.1690,-82.9260,3.0,1.63,127.4,2.15,'1111122,1111122,1111122' 
COMPS,ioos:station:USF.COMPS:C10:1,2017-04-01T18:35:00Z,27.1690,-82.9260,3.0,0.71,100.09,1.35,'1111122,1111122,1111122' 
COMPS,ioos:station:USF.COMPS:C10:1,2017-04-01T19:05:00Z,27.1690,-82.9260,3.0,0.61,61.72,1.45,'1111122,1111122,1111122' 
COMPS,ioos:station:USF.COMPS:C10:1,2017-04-01T19:35:00Z,27.1690,-82.9260,3.0,0.66,359.97,1.33,'1111122,1111122,1111122' 
COMPS,ioos:station:USF.COMPS:C10:1,2017-04-01T20:05:00Z,27.1690,-82.9260,3.0,0.61,346.38,1.09,'1111122,1111122,1111122' 
COMPS,ioos:station:USF.COMPS:C10:1,2017-04-01T20:35:00Z,27.1690,-82.9260,3.0,0.9,342.73,1.71,'1111122,1111122,1111122' 
COMPS,ioos:station:USF.COMPS:C10:1,2017-04-01T21:05:00Z,27.1690,-82.9260,3.0,0.47,331.86,1.22,'1111122,1111122,1111122' 
COMPS,ioos:station:USF.COMPS:C10:1,2017-04-01T21:35:00Z,27.1690,-82.9260,3.0,1.64,352.87,2.49,'1111122,1111122,1111122' 
COMPS,ioos:station:USF.COMPS:C10:1,2017-04-01T22:05:00Z,27.1690,-82.9260,3.0,1.53,345.74,2.13,'1111122,1111122,1111122' 
COMPS,ioos:station:USF.COMPS:C10:1,2017-04-01T22:35:00Z,27.1690,-82.9260,3.0,1.62,343.68,2.25,'1111122,1111122,1111122' 
COMPS,ioos:station:USF.COMPS:C10:1,2017-04-01T23:05:00Z,27.1690,-82.9260,3.0,1.71,347.84,2.26,'1111122,1111122,1111122' 
COMPS,ioos:station:USF.COMPS:C10:1,2017-04-01T23:35:00Z,27.1690,-82.9260,3.0,1.78,2.32,2.29,'1111122,1111122,1111122' 
COMPS,ioos:station:USF.COMPS:C10:1,2017-04-02T00:05:00Z,27.1690,-82.9260,3.0,2.02,11.59,2.55,'1111122,1111122,1111122' 
COMPS,ioos:station:USF.COMPS:C10:1,2017-04-02T00:35:00Z,27.1690,-82.9260,3.0,2.14,2.12,2.96,'1111122,1111122,1111122' 
COMPS,ioos:station:USF.COMPS:C10:1,2017-04-02T01:05:00Z,27.1690,-82.9260,3.0,1.59,1.78,2.23,'1111122,1111122,1111122' 
COMPS,ioos:station:USF.COMPS:C10:1,2017-04-02T01:35:00Z,27.1690,-82.9260,3.0,1.27,334.39,1.71,'1111122,1111122,1111122' 
COMPS,ioos:station:USF.COMPS:C10:1,2017-04-02T02:05:00Z,27.1690,-82.9260,3.0,1.8,332.7,2.26,'1111122,1111122,1111122' 
COMPS,ioos:station:USF.COMPS:C10:1,2017-04-02T02:35:00Z,27.1690,-82.9260,3.0,1.59,327.97,2.03,'1111122,1111122,1111122' 
COMPS,ioos:station:USF.COMPS:C10:1,2017-04-02T03:05:00Z,27.1690,-82.9260,3.0,1.77,346.3,2.23,'1111122,1111122,1111122' 
COMPS,ioos:station:USF.COMPS:C10:1,2017-04-02T03:35:00Z,27.1690,-82.9260,3.0,1.87,356.05,2.42,'1111122,1111122,1111122' 
COMPS,ioos:station:USF.COMPS:C10:1,2017-04-02T04:05:00Z,27.1690,-82.9260,3.0,1.74,349.18,2.2,'1111122,1111122,1111122' 
COMPS,ioos:station:USF.COMPS:C10:1,2017-04-02T04:35:00Z,27.1690,-82.9260,3.0,1.43,357.6,1.82,'1111122,1111122,1111122' 
COMPS,ioos:station:USF.COMPS:C10:1,2017-04-02T05:05:00Z,27.1690,-82.9260,3.0,1.53,1.89,2.26,'1111122,1111122,1111122' 
COMPS,ioos:station:USF.COMPS:C10:1,2017-04-02T05:35:00Z,27.1690,-82.9260,3.0,1.33,357.3,1.94,'1111122,1111122,1111122' 
COMPS,ioos:station:USF.COMPS:C10:1,2017-04-02T06:05:00Z,27.1690,-82.9260,3.0,1.95,2.21,2.39,'1111122,1111122,1111122' 
COMPS,ioos:station:USF.COMPS:C10:1,2017-04-02T06:35:00Z,27.1690,-82.9260,3.0,2.14,5.01,2.83,'1111122,1111122,1111122' 
COMPS,ioos:station:USF.COMPS:C10:1,2017-04-02T07:05:00Z,27.1690,-82.9260,3.0,3.5,24.15,3.9,'1111122,1111122,1111122' 
COMPS,ioos:station:USF.COMPS:C10:1,2017-04-02T07:35:00Z,27.1690,-82.9260,3.0,4.01,25.95,4.94,'1111122,1111122,1111122' 
COMPS,ioos:station:USF.COMPS:C10:1,2017-04-02T10:05:00Z,27.1690,-82.9260,3.0,4.04,89.49,4.86,'1111122,1111122,1111122' 
COMPS,ioos:station:USF.COMPS:C10:1,2017-04-02T10:35:00Z,27.1690,-82.9260,3.0,3.67,92.32,4.73,'1111122,1111122,1111122' 
COMPS,ioos:station:USF.COMPS:C10:1,2017-04-02T11:05:00Z,27.1690,-82.9260,3.0,3.44,97.48,4.17,'1111122,1111122,1111122' 
COMPS,ioos:station:USF.COMPS:C10:1,2017-04-02T11:35:00Z,27.1690,-82.9260,3.0,2.65,92.82,3.3,'1111122,1111122,1111122' 
COMPS,ioos:station:USF.COMPS:C10:1,2017-04-02T12:05:00Z,27.1690,-82.9260,3.0,3.29,91.35,3.83,'1111122,1111122,1111122' 
COMPS,ioos:station:USF.COMPS:C10:1,2017-04-02T12:35:00Z,27.1690,-82.9260,3.0,3.27,88.29,3.87,'1111122,1111122,1111122' 
COMPS,ioos:station:USF.COMPS:C10:1,2017-04-02T13:05:00Z,27.1690,-82.9260,3.0,2.85,92.41,3.72,'1111122,1111122,1111122' 
COMPS,ioos:station:USF.COMPS:C10:1,2017-04-02T13:35:00Z,27.1690,-82.9260,3.0,3.14,89.77,3.93,'1111122,1111122,1111122' 
COMPS,ioos:station:USF.COMPS:C10:1,2017-04-02T14:05:00Z,27.1690,-82.9260,3.0,3.32,105.08,3.96,'1111122,1111122,1111122' 
COMPS,ioos:station:USF.COMPS:C10:1,2017-04-02T14:35:00Z,27.1690,-82.9260,3.0,2.99,97.29,3.71,'1111122,1111122,1111122' 
COMPS,ioos:station:USF.COMPS:C10:1,2017-04-02T15:05:00Z,27.1690,-82.9260,3.0,3.57,101.24,4.31,'1111122,1111122,1111122' 
COMPS,ioos:station:USF.COMPS:C10:1,2017-04-02T15:35:00Z,27.1690,-82.9260,3.0,3.65,90.45,4.3,'1111122,1111122,1111122' 
COMPS,ioos:station:USF.COMPS:C10:1,2017-04-02T16:05:00Z,27.1690,-82.9260,3.0,3.19,89.48,3.72,'1111122,1111122,1111122' 
COMPS,ioos:station:USF.COMPS:C10:1,2017-04-02T16:35:00Z,27.1690,-82.9260,3.0,2.71,84.75,3.32,'1111122,1111122,1111122' 
COMPS,ioos:station:USF.COMPS:C10:1,2017-04-02T17:05:00Z,27.1690,-82.9260,3.0,2.08,127.64,2.52,'1111122,1111122,1111122' 
COMPS,ioos:station:USF.COMPS:C10:1,2017-04-02T17:35:00Z,27.1690,-82.9260,3.0,1.64,123.36,1.99,'1111122,1111122,1111122' 
COMPS,ioos:station:USF.COMPS:C10:1,2017-04-02T18:05:00Z,27.1690,-82.9260,3.0,1.96,102.28,3.3,'1111122,1111122,1111122' 
COMPS,ioos:station:USF.COMPS:C10:1,2017-04-02T18:35:00Z,27.1690,-82.9260,3.0,1.12,130.73,1.5,'1111122,1111122,1111122' 
COMPS,ioos:station:USF.COMPS:C10:1,2017-04-02T19:05:00Z,27.1690,-82.9260,3.0,0.7,137.11,1.01,'1111122,1111122,1111122' 
COMPS,ioos:station:USF.COMPS:C10:1,2017-04-02T19:35:00Z,27.1690,-82.9260,3.0,2.01,198.68,2.71,'1111122,1111122,1111122' 
COMPS,ioos:station:USF.COMPS:C10:1,2017-04-02T20:05:00Z,27.1690,-82.9260,3.0,2.79,195.05,3.31,'1111122,1111122,1111122' 
COMPS,ioos:station:USF.COMPS:C10:1,2017-04-02T20:35:00Z,27.1690,-82.9260,3.0,2.92,204.01,3.4,'1111122,1111122,1111122' 
COMPS,ioos:station:USF.COMPS:C10:1,2017-04-02T21:05:00Z,27.1690,-82.9260,3.0,2.72,194.1,3.15,'1111122,1111122,1111122' 
COMPS,ioos:station:USF.COMPS:C10:1,2017-04-02T21:35:00Z,27.1690,-82.9260,3.0,2.28,176.96,2.73,'1111122,1111122,1111122' 
COMPS,ioos:station:USF.COMPS:C10:1,2017-04-02T22:05:00Z,27.1690,-82.9260,3.0,3.01,201.0,3.52,'1111122,1111122,1111122' 
COMPS,ioos:station:USF.COMPS:C10:1,2017-04-02T22:35:00Z,27.1690,-82.9260,3.0,3.02,205.96,3.57,'1111122,1111122,1111122' 
COMPS,ioos:station:USF.COMPS:C10:1,2017-04-02T23:05:00Z,27.1690,-82.9260,3.0,3.09,204.06,3.69,'1111122,1111122,1111122' 
COMPS,ioos:station:USF.COMPS:C10:1,2017-04-02T23:35:00Z,27.1690,-82.9260,3.0,3.18,187.01,3.76,'1111122,1111122,1111122' 
COMPS,ioos:station:USF.COMPS:C10:1,2017-04-03T00:05:00Z,27.1690,-82.9260,3.0,2.99,184.42,3.56,'1111122,1111122,1111122' 
COMPS,ioos:station:USF.COMPS:C10:1,2017-04-03T00:35:00Z,27.1690,-82.9260,3.0,3.66,177.09,4.47,'1111122,1111122,1111122' 
COMPS,ioos:station:USF.COMPS:C10:1,2017-04-03T01:05:00Z,27.1690,-82.9260,3.0,3.69,171.91,4.56,'1111122,1111122,1111122' 
COMPS,ioos:station:USF.COMPS:C10:1,2017-04-03T01:35:00Z,27.1690,-82.9260,3.0,2.99,166.8,3.43,'1111122,1111122,1111122' 
COMPS,ioos:station:USF.COMPS:C10:1,2017-04-03T02:05:00Z,27.1690,-82.9260,3.0,2.84,158.36,3.33,'1111122,1111122,1111122' 
COMPS,ioos:station:USF.COMPS:C10:1,2017-04-03T02:35:00Z,27.1690,-82.9260,3.0,3.4,159.45,4.99,'1111122,1111122,1111122' 
COMPS,ioos:station:USF.COMPS:C10:1,2017-04-03T03:05:00Z,27.1690,-82.9260,3.0,3.77,143.7,4.51,'1111122,1111122,1111122' 
COMPS,ioos:station:USF.COMPS:C10:1,2017-04-03T03:35:00Z,27.1690,-82.9260,3.0,5.18,136.28,6.01,'1111122,1111122,1111122' 
COMPS,ioos:station:USF.COMPS:C10:1,2017-04-03T04:05:00Z,27.1690,-82.9260,3.0,4.41,135.77,5.54,'1111122,1111122,1111122' 
COMPS,ioos:station:USF.COMPS:C10:1,2017-04-03T04:35:00Z,27.1690,-82.9260,3.0,4.34,147.5,5.41,'1111122,1111122,1111122' 
COMPS,ioos:station:USF.COMPS:C10:1,2017-04-03T05:05:00Z,27.1690,-82.9260,3.0,3.79,142.82,4.86,'1111122,1111122,1111122' 
COMPS,ioos:station:USF.COMPS:C10:1,2017-04-03T05:35:00Z,27.1690,-82.9260,3.0,3.06,147.06,3.96,'1111122,1111122,1111122' 
COMPS,ioos:station:USF.COMPS:C10:1,2017-04-03T06:05:00Z,27.1690,-82.9260,3.0,3.78,146.5,4.77,'1111122,1111122,1111122' 
COMPS,ioos:station:USF.COMPS:C10:1,2017-04-03T06:35:00Z,27.1690,-82.9260,3.0,5.04,157.64,5.78,'1111122,1111122,1111122' 
COMPS,ioos:station:USF.COMPS:C10:1,2017-04-03T07:05:00Z,27.1690,-82.9260,3.0,5.0,150.71,6.0,'1111122,1111122,1111122' 
COMPS,ioos:station:USF.COMPS:C10:1,2017-04-03T07:35:00Z,27.1690,-82.9260,3.0,5.37,139.64,6.12,'1111122,1111122,1111122' 
COMPS,ioos:station:USF.COMPS:C10:1,2017-04-03T08:05:00Z,27.1690,-82.9260,3.0,5.43,137.81,7.42,'1111122,1111122,1111122' 
COMPS,ioos:station:USF.COMPS:C10:1,2017-04-03T08:35:00Z,27.1690,-82.9260,3.0,5.83,137.03,7.07,'1111122,1111122,1111122' 
COMPS,ioos:station:USF.COMPS:C10:1,2017-04-03T09:05:00Z,27.1690,-82.9260,3.0,6.0,133.17,7.08,'1111122,1111122,1111122' 
COMPS,ioos:station:USF.COMPS:C10:1,2017-04-03T09:35:00Z,27.1690,-82.9260,3.0,6.56,119.76,8.54,'1111122,1111122,1111122' 
COMPS,ioos:station:USF.COMPS:C10:1,2017-04-03T10:05:00Z,27.1690,-82.9260,3.0,6.59,118.7,8.15,'1111122,1111122,1111122' 
COMPS,ioos:station:USF.COMPS:C10:1,2017-04-03T10:35:00Z,27.1690,-82.9260,3.0,6.7,119.85,8.46,'1111122,1111122,1111122' 
COMPS,ioos:station:USF.COMPS:C10:1,2017-04-03T11:05:00Z,27.1690,-82.9260,3.0,6.71,120.08,7.71,'1111122,1111122,1111122' 
COMPS,ioos:station:USF.COMPS:C10:1,2017-04-03T11:35:00Z,27.1690,-82.9260,3.0,6.82,125.68,8.2,'1111122,1111122,1111122' 
COMPS,ioos:station:USF.COMPS:C10:1,2017-04-03T12:05:00Z,27.1690,-82.9260,3.0,6.66,132.52,7.72,'1111122,1111122,1111122' 
COMPS,ioos:station:USF.COMPS:C10:1,2017-04-03T12:35:00Z,27.1690,-82.9260,3.0,7.31,132.56,8.49,'1111122,1111122,1111122' 
COMPS,ioos:station:USF.COMPS:C10:1,2017-04-03T13:05:00Z,27.1690,-82.9260,3.0,7.33,131.14,8.77,'1111122,1111122,1111122' 
COMPS,ioos:station:USF.COMPS:C10:1,2017-04-03T13:35:00Z,27.1690,-82.9260,3.0,7.56,136.12,9.3,'1111122,1111122,1111122' 
COMPS,ioos:station:USF.COMPS:C10:1,2017-04-03T14:05:00Z,27.1690,-82.9260,3.0,7.75,139.99,9.83,'1111122,1111122,1111122' 
COMPS,ioos:station:USF.COMPS:C10:1,2017-04-03T14:35:00Z,27.1690,-82.9260,3.0,8.19,143.79,9.81,'1111122,1111122,1111122' 
COMPS,ioos:station:USF.COMPS:C10:1,2017-04-03T15:05:00Z,27.1690,-82.9260,3.0,7.86,142.88,9.72,'1111122,1111122,1111122' 
COMPS,ioos:station:USF.COMPS:C10:1,2017-04-03T15:35:00Z,27.1690,-82.9260,3.0,8.04,148.32,9.59,'1111122,1111122,1111122' 
COMPS,ioos:station:USF.COMPS:C10:1,2017-04-03T16:05:00Z,27.1690,-82.9260,3.0,7.61,150.68,9.1,'1111122,1111122,1111122' 
COMPS,ioos:station:USF.COMPS:C10:1,2017-04-03T16:35:00Z,27.1690,-82.9260,3.0,8.07,154.19,9.78,'1111122,1111122,1111122' 
COMPS,ioos:station:USF.COMPS:C10:1,2017-04-03T17:05:00Z,27.1690,-82.9260,3.0,7.56,153.32,8.85,'1111122,1111122,1111122' 
COMPS,ioos:station:USF.COMPS:C10:1,2017-04-03T17:35:00Z,27.1690,-82.9260,3.0,7.33,160.12,8.95,'1111122,1111122,1111122' 
COMPS,ioos:station:USF.COMPS:C10:1,2017-04-03T18:05:00Z,27.1690,-82.9260,3.0,6.77,163.36,8.51,'1111122,1111122,1111122' 
COMPS,ioos:station:USF.COMPS:C10:1,2017-04-03T18:35:00Z,27.1690,-82.9260,3.0,6.57,166.04,7.88,'1111122,1111122,1111122' 
COMPS,ioos:station:USF.COMPS:C10:1,2017-04-03T19:05:00Z,27.1690,-82.9260,3.0,6.74,169.17,7.89,'1111122,1111122,1111122' 
COMPS,ioos:station:USF.COMPS:C10:1,2017-04-03T19:35:00Z,27.1690,-82.9260,3.0,6.61,171.25,7.78,'1111122,1111122,1111122' 
COMPS,ioos:station:USF.COMPS:C10:1,2017-04-03T20:05:00Z,27.1690,-82.9260,3.0,6.6,171.96,7.84,'1111122,1111122,1111122' 
COMPS,ioos:station:USF.COMPS:C10:1,2017-04-03T20:35:00Z,27.1690,-82.9260,3.0,6.93,171.71,8.58,'1111122,1111122,1111122' 
COMPS,ioos:station:USF.COMPS:C10:1,2017-04-03T21:05:00Z,27.1690,-82.9260,3.0,7.33,171.62,8.97,'1111122,1111122,1111122' 
COMPS,ioos:station:USF.COMPS:C10:1,2017-04-03T21:35:00Z,27.1690,-82.9260,3.0,7.31,171.27,8.93,'1111122,1111122,1111122' 
COMPS,ioos:station:USF.COMPS:C10:1,2017-04-03T22:05:00Z,27.1690,-82.9260,3.0,7.94,167.02,9.61,'1111122,1111122,1111122' 
COMPS,ioos:station:USF.COMPS:C10:1,2017-04-03T22:35:00Z,27.1690,-82.9260,3.0,7.76,172.11,9.66,'1111122,1111122,1111122' 
COMPS,ioos:station:USF.COMPS:C10:1,2017-04-03T23:05:00Z,27.1690,-82.9260,3.0,7.59,173.3,9.32,'1111122,1111122,1111122' 
COMPS,ioos:station:USF.COMPS:C10:1,2017-04-03T23:35:00Z,27.1690,-82.9260,3.0,7.82,173.32,9.53,'1111122,1111122,1111122' 
COMPS,ioos:station:USF.COMPS:C10:1,2017-04-04T00:05:00Z,27.1690,-82.9260,3.0,7.46,171.31,9.2,'1111122,1111122,1111122' 
COMPS,ioos:station:USF.COMPS:C10:1,2017-04-04T00:35:00Z,27.1690,-82.9260,3.0,7.77,171.4,9.3,'1111122,1111122,1111122' 
COMPS,ioos:station:USF.COMPS:C10:1,2017-04-04T01:05:00Z,27.1690,-82.9260,3.0,6.58,171.55,7.98,'1111122,1111122,1111122' 
COMPS,ioos:station:USF.COMPS:C10:1,2017-04-04T01:35:00Z,27.1690,-82.9260,3.0,6.32,172.52,7.49,'1111122,1111122,1111122' 
COMPS,ioos:station:USF.COMPS:C10:1,2017-04-04T02:05:00Z,27.1690,-82.9260,3.0,5.6,173.93,6.87,'1111122,1111122,1111122' 
COMPS,ioos:station:USF.COMPS:C10:1,2017-04-04T02:35:00Z,27.1690,-82.9260,3.0,5.81,173.35,7.06,'1111122,1111122,1111122' 
COMPS,ioos:station:USF.COMPS:C10:1,2017-04-04T03:05:00Z,27.1690,-82.9260,3.0,5.96,174.71,7.03,'1111122,1111122,1111122' 
COMPS,ioos:station:USF.COMPS:C10:1,2017-04-04T03:35:00Z,27.1690,-82.9260,3.0,5.71,173.11,7.01,'1111122,1111122,1111122' 
COMPS,ioos:station:USF.COMPS:C10:1,2017-04-04T04:05:00Z,27.1690,-82.9260,3.0,5.83,172.61,7.18,'1111122,1111122,1111122' 
COMPS,ioos:station:USF.COMPS:C10:1,2017-04-04T04:35:00Z,27.1690,-82.9260,3.0,5.92,174.36,7.25,'1111122,1111122,1111122' 
COMPS,ioos:station:USF.COMPS:C10:1,2017-04-04T05:05:00Z,27.1690,-82.9260,3.0,6.08,178.72,7.2,'1111122,1111122,1111122' 
COMPS,ioos:station:USF.COMPS:C10:1,2017-04-04T05:35:00Z,27.1690,-82.9260,3.0,6.41,179.2,8.0,'1111122,1111122,1111122' 
COMPS,ioos:station:USF.COMPS:C10:1,2017-04-04T06:05:00Z,27.1690,-82.9260,3.0,7.65,169.74,8.99,'1111122,1111122,1111122' 
COMPS,ioos:station:USF.COMPS:C10:1,2017-04-04T06:35:00Z,27.1690,-82.9260,3.0,8.13,170.12,9.67,'1111122,1111122,1111122' 
COMPS,ioos:station:USF.COMPS:C10:1,2017-04-04T07:05:00Z,27.1690,-82.9260,3.0,7.67,171.36,9.56,'1111122,1111122,1111122' 
COMPS,ioos:station:USF.COMPS:C10:1,2017-04-04T07:35:00Z,27.1690,-82.9260,3.0,7.31,171.92,8.67,'1111122,1111122,1111122' 
COMPS,ioos:station:USF.COMPS:C10:1,2017-04-04T08:05:00Z,27.1690,-82.9260,3.0,7.72,171.01,9.31,'1111122,1111122,1111122' 
COMPS,ioos:station:USF.COMPS:C10:1,2017-04-04T08:35:00Z,27.1690,-82.9260,3.0,7.59,171.11,9.21,'1111122,1111122,1111122' 
COMPS,ioos:station:USF.COMPS:C10:1,2017-04-04T09:05:00Z,27.1690,-82.9260,3.0,7.13,169.55,9.06,'1111122,1111122,1111122' 
COMPS,ioos:station:USF.COMPS:C10:1,2017-04-04T09:35:00Z,27.1690,-82.9260,3.0,6.77,168.81,8.59,'1111122,1111122,1111122' 
COMPS,ioos:station:USF.COMPS:C10:1,2017-04-04T10:05:00Z,27.1690,-82.9260,3.0,6.4,172.1,7.92,'1111122,1111122,1111122' 
COMPS,ioos:station:USF.COMPS:C10:1,2017-04-04T10:35:00Z,27.1690,-82.9260,3.0,5.7,176.32,6.95,'1111122,1111122,1111122' 
COMPS,ioos:station:USF.COMPS:C10:1,2017-04-04T11:05:00Z,27.1690,-82.9260,3.0,5.56,176.27,6.68,'1111122,1111122,1111122' 
COMPS,ioos:station:USF.COMPS:C10:1,2017-04-04T11:35:00Z,27.1690,-82.9260,3.0,5.25,176.02,6.58,'1111122,1111122,1111122' 
COMPS,ioos:station:USF.COMPS:C10:1,2017-04-04T12:05:00Z,27.1690,-82.9260,3.0,5.2,170.07,6.29,'1111122,1111122,1111122' 
COMPS,ioos:station:USF.COMPS:C10:1,2017-04-04T12:35:00Z,27.1690,-82.9260,3.0,5.28,172.52,6.76,'1111122,1111122,1111122' 
COMPS,ioos:station:USF.COMPS:C10:1,2017-04-04T13:05:00Z,27.1690,-82.9260,3.0,5.77,171.82,7.15,'1111122,1111122,1111122' 
COMPS,ioos:station:USF.COMPS:C10:1,2017-04-04T13:35:00Z,27.1690,-82.9260,3.0,5.97,166.5,7.35,'1111122,1111122,1111122' 
COMPS,ioos:station:USF.COMPS:C10:1,2017-04-04T14:05:00Z,27.1690,-82.9260,3.0,6.15,166.93,7.15,'1111122,1111122,1111122' 
COMPS,ioos:station:USF.COMPS:C10:1,2017-04-04T14:35:00Z,27.1690,-82.9260,3.0,5.69,159.68,6.98,'1111122,1111122,1111122' 
COMPS,ioos:station:USF.COMPS:C10:1,2017-04-04T15:05:00Z,27.1690,-82.9260,3.0,4.81,153.63,5.67,'1111122,1111122,1111122' 
COMPS,ioos:station:USF.COMPS:C10:1,2017-04-04T15:35:00Z,27.1690,-82.9260,3.0,4.48,175.64,5.57,'1111122,1111122,1111122' 
COMPS,ioos:station:USF.COMPS:C10:1,2017-04-04T16:05:00Z,27.1690,-82.9260,3.0,4.8,181.68,5.76,'1111122,1111122,1111122' 
COMPS,ioos:station:USF.COMPS:C10:1,2017-04-04T16:35:00Z,27.1690,-82.9260,3.0,4.51,182.67,5.47,'1111122,1111122,1111122' 
COMPS,ioos:station:USF.COMPS:C10:1,2017-04-04T17:05:00Z,27.1690,-82.9260,3.0,4.11,176.42,5.1,'1111122,1111122,1111122' 
COMPS,ioos:station:USF.COMPS:C10:1,2017-04-04T17:35:00Z,27.1690,-82.9260,3.0,4.61,163.78,5.7,'1111122,1111122,1111122' 
COMPS,ioos:station:USF.COMPS:C10:1,2017-04-04T18:05:00Z,27.1690,-82.9260,3.0,4.37,151.15,5.12,'1111122,1111122,1111122' 
COMPS,ioos:station:USF.COMPS:C10:1,2017-04-04T18:35:00Z,27.1690,-82.9260,3.0,4.68,150.21,5.46,'1111122,1111122,1111122' 
COMPS,ioos:station:USF.COMPS:C10:1,2017-04-04T19:05:00Z,27.1690,-82.9260,3.0,5.64,157.79,6.87,'1111122,1111122,1111122' 
COMPS,ioos:station:USF.COMPS:C10:1,2017-04-04T19:35:00Z,27.1690,-82.9260,3.0,5.9,164.26,7.22,'1111122,1111122,1111122' 
COMPS,ioos:station:USF.COMPS:C10:1,2017-04-04T20:05:00Z,27.1690,-82.9260,3.0,5.36,156.81,6.57,'1111122,1111122,1111122' 
COMPS,ioos:station:USF.COMPS:C10:1,2017-04-04T20:35:00Z,27.1690,-82.9260,3.0,5.23,158.67,6.23,'1111122,1111122,1111122' 
COMPS,ioos:station:USF.COMPS:C10:1,2017-04-04T21:05:00Z,27.1690,-82.9260,3.0,4.46,159.26,5.23,'1111122,1111122,1111122' 
COMPS,ioos:station:USF.COMPS:C10:1,2017-04-04T21:35:00Z,27.1690,-82.9260,3.0,4.84,163.41,5.85,'1111122,1111122,1111122' 
COMPS,ioos:station:USF.COMPS:C10:1,2017-04-04T22:05:00Z,27.1690,-82.9260,3.0,4.36,160.25,5.15,'1111122,1111122,1111122' 
COMPS,ioos:station:USF.COMPS:C10:1,2017-04-04T22:35:00Z,27.1690,-82.9260,3.0,3.99,152.95,4.6,'1111122,1111122,1111122' 
COMPS,ioos:station:USF.COMPS:C10:1,2017-04-05T15:05:00Z,27.1690,-82.9260,3.0,5.97,162.11,7.14,'1111122,1111122,1111122' 
COMPS,ioos:station:USF.COMPS:C10:1,2017-04-05T15:35:00Z,27.1690,-82.9260,3.0,5.92,161.4,7.04,'1111122,1111122,1111122' 
COMPS,ioos:station:USF.COMPS:C10:1,2017-04-05T16:05:00Z,27.1690,-82.9260,3.0,7.29,160.19,8.93,'1111122,1111122,1111122' 
COMPS,ioos:station:USF.COMPS:C10:1,2017-04-05T16:35:00Z,27.1690,-82.9260,3.0,7.33,165.84,9.03,'1111122,1111122,1111122' 
COMPS,ioos:station:USF.COMPS:C10:1,2017-04-05T17:05:00Z,27.1690,-82.9260,3.0,7.84,168.07,9.52,'1111122,1111122,1111122' 
COMPS,ioos:station:USF.COMPS:C10:1,2017-04-05T17:35:00Z,27.1690,-82.9260,3.0,7.97,167.99,9.54,'1111122,1111122,1111122' 
COMPS,ioos:station:USF.COMPS:C10:1,2017-04-05T18:05:00Z,27.1690,-82.9260,3.0,7.78,171.71,9.3,'1111122,1111122,1111122' 
COMPS,ioos:station:USF.COMPS:C10:1,2017-04-05T18:35:00Z,27.1690,-82.9260,3.0,7.67,172.67,9.17,'1111122,1111122,1111122' 
COMPS,ioos:station:USF.COMPS:C10:1,2017-04-05T19:05:00Z,27.1690,-82.9260,3.0,7.12,178.64,8.59,'1111122,1111122,1111122' 
COMPS,ioos:station:USF.COMPS:C10:1,2017-04-05T19:35:00Z,27.1690,-82.9260,3.0,7.39,174.47,8.7,'1111122,1111122,1111122' 
COMPS,ioos:station:USF.COMPS:C10:1,2017-04-05T20:05:00Z,27.1690,-82.9260,3.0,6.3,181.57,7.64,'1111122,1111122,1111122' 
COMPS,ioos:station:USF.COMPS:C10:1,2017-04-05T20:35:00Z,27.1690,-82.9260,3.0,6.07,180.15,7.02,'1111122,1111122,1111122' 
COMPS,ioos:station:USF.COMPS:C10:1,2017-04-05T21:05:00Z,27.1690,-82.9260,3.0,5.8,185.32,6.95,'1111122,1111122,1111122' 
COMPS,ioos:station:USF.COMPS:C10:1,2017-04-05T21:35:00Z,27.1690,-82.9260,3.0,5.23,183.24,6.14,'1111122,1111122,1111122' 
COMPS,ioos:station:USF.COMPS:C10:1,2017-04-05T22:05:00Z,27.1690,-82.9260,3.0,4.62,185.22,5.55,'1111122,1111122,1111122' 
COMPS,ioos:station:USF.COMPS:C10:1,2017-04-05T22:35:00Z,27.1690,-82.9260,3.0,4.05,184.5,4.99,'1111122,1111122,1111122' 
COMPS,ioos:station:USF.COMPS:C10:1,2017-04-05T23:05:00Z,27.1690,-82.9260,3.0,3.66,193.6,4.61,'1111122,1111122,1111122' 
COMPS,ioos:station:USF.COMPS:C10:1,2017-04-05T23:35:00Z,27.1690,-82.9260,3.0,3.26,203.24,4.07,'1111122,1111122,1111122' 
COMPS,ioos:station:USF.COMPS:C10:1,2017-04-06T00:05:00Z,27.1690,-82.9260,3.0,2.37,210.63,3.09,'1111122,1111122,1111122' 
COMPS,ioos:station:USF.COMPS:C10:1,2017-04-06T00:35:00Z,27.1690,-82.9260,3.0,2.1,226.2,2.66,'1111122,1111122,1111122' 
COMPS,ioos:station:USF.COMPS:C10:1,2017-04-06T01:05:00Z,27.1690,-82.9260,3.0,2.18,221.84,2.97,'1111122,1111122,1111122' 
COMPS,ioos:station:USF.COMPS:C10:1,2017-04-06T01:35:00Z,27.1690,-82.9260,3.0,2.91,208.91,3.69,'1111122,1111122,1111122' 